Simultaneous Nadir Overpasses (SNOs) Predictions

Prediction of SNOs between AQUA and METOP-B Satellite Orbit:

Table of predicted SNOs for the next 14.0 days since TLE Epoch: 9/28/2019
Index Date (AQUA) Time (AQUA) Lat,Lon (AQUA) SZA (AQUA ) Date (METOP-B) Time (METOP-B) Lat,Lon (METOP-B) SZA (METOP-B ) Distance(km) Time Diff (sec)
1 09/29/2019 05:31:13 73.63, 91.81 75.87 09/29/2019 05:30:02 73.57, 90.91 75.82 29.29 71
2 09/29/2019 06:20:43 -73.87,-101.06 103.88 09/29/2019 06:20:38 -73.87,-101.04 103.87 0.86 5
3 09/29/2019 07:10:12 73.94, 66.41 76.21 09/29/2019 07:11:16 73.94, 66.46 76.21 1.37 64
4 10/02/2019 01:05:31 73.80, 157.88 77.13 10/02/2019 01:04:18 73.79, 157.84 77.13 1.47 73
5 10/02/2019 01:54:58 -73.87, -34.63 102.79 10/02/2019 01:54:59 -73.85, -34.68 102.80 2.35 1
6 10/02/2019 02:44:27 73.95, 132.83 77.31 10/02/2019 02:45:37 73.92, 132.81 77.28 3.45 70
7 10/04/2019 20:39:47 73.81,-135.71 78.23 10/04/2019 20:38:39 73.82,-135.69 78.24 0.75 68
8 10/04/2019 21:29:14 -73.87, 31.79 101.70 10/04/2019 21:29:20 -73.88, 31.79 101.69 0.61 6
9 10/04/2019 22:18:44 74.02,-160.89 78.47 10/04/2019 22:19:56 74.04,-160.48 78.48 12.71 72
10 10/07/2019 16:14:03 73.83, -69.32 79.33 10/07/2019 16:13:00 73.84, -69.23 79.34 2.94 63
11 10/07/2019 17:03:30 -73.89, 98.20 100.61 10/07/2019 17:03:41 -73.90, 98.26 100.59 2.58 11
12 10/07/2019 17:53:04 74.24, -94.98 79.78 10/07/2019 17:54:13 74.26, -93.53 79.77 43.79 69
13 10/10/2019 11:48:17 73.81, -2.83 80.37 10/10/2019 11:47:21 73.81, -2.89 80.38 1.87 56
14 10/10/2019 12:37:45 -73.91, 164.59 99.52 10/10/2019 12:38:02 -73.88, 164.60 99.55 3.26 17




NCC Satellite Simultaneous Nadir Overpasses (SNOs) Prediction Service
